Time,TemperatureF,DewpointF,PressureIn,WindDirection,WindDirectionDegrees,WindSpeedMPH,WindSpeedGustMPH,Humidity,HourlyPrecipIn,Conditions,Clouds,dailyrainin,SoftwareType,DateUTC
2013-01-15 00:04:00,23.4,6.6,28.79,North,8,0.0,0.0,48,0.00,,---,0.00,VWS V14.00,2013-01-15 06:04:00,
2013-01-15 00:09:00,23.4,6.6,28.79,North,8,0.0,0.0,48,0.00,,---,0.00,VWS V14.00,2013-01-15 06:09:00,
2013-01-15 00:14:00,23.2,6.4,28.79,North,8,0.0,0.0,48,0.00,,---,0.00,VWS V14.00,2013-01-15 06:14:00,
2013-01-15 00:19:00,23.0,6.7,28.79,North,8,0.0,0.0,49,0.00,,---,0.00,VWS V14.00,2013-01-15 06:19:00,
2013-01-15 00:24:00,22.6,6.4,28.76,North,8,0.0,0.0,49,0.00,,---,0.00,VWS V14.00,2013-01-15 06:24:00,
2013-01-15 00:29:00,22.3,6.0,28.76,North,8,0.0,0.0,49,0.00,,---,0.00,VWS V14.00,2013-01-15 06:29:00,
2013-01-15 00:34:00,21.9,5.7,28.76,North,8,0.0,0.0,49,0.00,,---,0.00,VWS V14.00,2013-01-15 06:34:00,
2013-01-15 00:39:00,21.7,5.5,28.79,North,8,0.0,0.0,49,0.00,,---,0.00,VWS V14.00,2013-01-15 06:39:00,
2013-01-15 00:44:00,21.2,5.0,28.79,North,8,0.0,0.0,49,0.00,,---,0.00,VWS V14.00,2013-01-15 06:44:00,
2013-01-15 00:49:00,21.0,4.9,28.79,North,8,0.0,0.0,49,0.00,,---,0.00,VWS V14.00,2013-01-15 06:49:00,
2013-01-15 00:55:00,20.7,4.5,28.76,North,8,0.0,0.0,49,0.00,,---,0.00,VWS V14.00,2013-01-15 06:55:00,
2013-01-15 01:00:00,20.3,4.2,28.76,North,8,0.0,0.0,49,0.00,,---,0.00,VWS V14.00,2013-01-15 07:00:00,
2013-01-15 01:05:00,20.1,4.0,28.76,North,8,0.0,0.0,49,0.00,,---,0.00,VWS V14.00,2013-01-15 07:05:00,
2013-01-15 01:10:00,19.8,3.7,28.76,North,8,0.0,0.0,49,0.00,,---,0.00,VWS V14.00,2013-01-15 07:10:00,
2013-01-15 01:15:00,19.6,4.0,28.76,North,8,0.0,0.0,50,0.00,,---,0.00,VWS V14.00,2013-01-15 07:15:00,
2013-01-15 01:20:00,19.2,3.6,28.76,North,8,0.0,0.0,50,0.00,,---,0.00,VWS V14.00,2013-01-15 07:20:00,
2013-01-15 01:25:00,19.0,3.9,28.79,North,8,0.0,0.0,51,0.00,,---,0.00,VWS V14.00,2013-01-15 07:25:00,
2013-01-15 01:30:00,18.7,3.6,28.79,North,8,0.0,0.0,51,0.00,,---,0.00,VWS V14.00,2013-01-15 07:30:00,
2013-01-15 01:35:00,18.7,3.6,28.79,North,8,0.0,0.0,51,0.00,,---,0.00,VWS V14.00,2013-01-15 07:35:00,
2013-01-15 01:41:00,18.3,3.7,28.76,North,8,0.0,0.0,52,0.00,,---,0.00,VWS V14.00,2013-01-15 07:41:00,
2013-01-15 01:46:00,18.1,3.5,28.76,North,8,0.0,0.0,52,0.00,,---,0.00,VWS V14.00,2013-01-15 07:46:00,
2013-01-15 01:51:00,17.8,3.2,28.79,North,8,0.0,0.0,52,0.00,,---,0.00,VWS V14.00,2013-01-15 07:51:00,
2013-01-15 01:56:00,17.6,3.4,28.79,North,8,0.0,0.0,53,0.00,,---,0.00,VWS V14.00,2013-01-15 07:56:00,
2013-01-15 02:01:00,17.4,3.2,28.79,North,8,0.0,0.0,53,0.00,,---,0.00,VWS V14.00,2013-01-15 08:01:00,
2013-01-15 02:06:00,17.6,3.8,28.79,North,8,0.0,0.0,54,0.00,,---,0.00,VWS V14.00,2013-01-15 08:06:00,
2013-01-15 02:11:00,17.6,3.8,28.79,North,8,0.0,0.0,54,0.00,,---,0.00,VWS V14.00,2013-01-15 08:11:00,
2013-01-15 02:17:00,17.6,3.8,28.79,North,8,0.0,0.0,54,0.00,,---,0.00,VWS V14.00,2013-01-15 08:17:00,
2013-01-15 02:22:00,17.4,3.6,28.76,North,8,0.0,0.0,54,0.00,,---,0.00,VWS V14.00,2013-01-15 08:22:00,
2013-01-15 02:27:00,17.4,3.6,28.76,North,8,0.0,0.0,54,0.00,,---,0.00,VWS V14.00,2013-01-15 08:27:00,
2013-01-15 02:33:00,17.1,3.3,28.76,North,8,0.0,0.0,54,0.00,,---,0.00,VWS V14.00,2013-01-15 08:33:00,
2013-01-15 02:38:00,16.9,3.1,28.79,North,8,0.0,0.0,54,0.00,,---,0.00,VWS V14.00,2013-01-15 08:38:00,
2013-01-15 02:43:00,16.9,3.5,28.79,North,8,0.0,0.0,55,0.00,,---,0.00,VWS V14.00,2013-01-15 08:43:00,
2013-01-15 02:48:00,16.7,3.3,28.79,North,8,0.0,0.0,55,0.00,,---,0.00,VWS V14.00,2013-01-15 08:48:00,
2013-01-15 02:53:00,16.7,3.3,28.76,North,8,0.0,0.0,55,0.00,,---,0.00,VWS V14.00,2013-01-15 08:53:00,
2013-01-15 02:58:00,16.7,3.3,28.76,North,8,0.0,0.0,55,0.00,,---,0.00,VWS V14.00,2013-01-15 08:58:00,
2013-01-15 03:03:00,16.5,3.2,28.76,North,8,0.0,0.0,55,0.00,,---,0.00,VWS V14.00,2013-01-15 09:03:00,
2013-01-15 03:08:00,16.5,3.2,28.79,North,8,0.0,0.0,55,0.00,,---,0.00,VWS V14.00,2013-01-15 09:08:00,
2013-01-15 03:13:00,16.7,3.3,28.79,North,8,0.0,0.0,55,0.00,,---,0.00,VWS V14.00,2013-01-15 09:13:00,
2013-01-15 03:18:00,16.7,3.7,28.79,North,8,0.0,0.0,56,0.00,,---,0.00,VWS V14.00,2013-01-15 09:18:00,
2013-01-15 03:24:00,16.7,3.7,28.79,North,8,0.0,0.0,56,0.00,,---,0.00,VWS V14.00,2013-01-15 09:24:00,
2013-01-15 03:29:00,16.7,3.7,28.79,North,8,0.0,0.0,56,0.00,,---,0.00,VWS V14.00,2013-01-15 09:29:00,
2013-01-15 03:35:00,16.5,3.6,28.79,North,8,0.0,0.0,56,0.00,,---,0.00,VWS V14.00,2013-01-15 09:35:00,
2013-01-15 03:40:00,16.5,3.6,28.76,North,8,0.0,0.0,56,0.00,,---,0.00,VWS V14.00,2013-01-15 09:40:00,
2013-01-15 03:45:00,16.5,3.6,28.76,North,8,0.0,0.0,56,0.00,,---,0.00,VWS V14.00,2013-01-15 09:45:00,
2013-01-15 03:50:00,16.3,3.8,28.76,North,8,0.0,0.0,57,0.00,,---,0.00,VWS V14.00,2013-01-15 09:50:00,
2013-01-15 03:55:00,16.2,3.6,28.79,North,8,0.0,0.0,57,0.00,,---,0.00,VWS V14.00,2013-01-15 09:55:00,
2013-01-15 04:00:00,16.2,3.6,28.79,North,8,0.0,0.0,57,0.00,,---,0.00,VWS V14.00,2013-01-15 10:00:00,
2013-01-15 04:05:00,16.2,3.6,28.79,North,8,0.0,0.0,57,0.00,,---,0.00,VWS V14.00,2013-01-15 10:05:00,
2013-01-15 04:10:00,16.2,4.0,28.76,North,8,0.0,0.0,58,0.00,,---,0.00,VWS V14.00,2013-01-15 10:10:00,
2013-01-15 04:15:00,16.3,4.2,28.76,North,8,0.0,0.0,58,0.00,,---,0.00,VWS V14.00,2013-01-15 10:15:00,
2013-01-15 04:21:00,16.5,4.3,28.79,North,8,0.0,0.0,58,0.00,,---,0.00,VWS V14.00,2013-01-15 10:21:00,
2013-01-15 04:26:00,16.7,4.5,28.79,North,8,0.0,0.0,58,0.00,,---,0.00,VWS V14.00,2013-01-15 10:26:00,
2013-01-15 04:31:00,16.9,5.0,28.79,North,8,0.0,0.0,59,0.00,,---,0.00,VWS V14.00,2013-01-15 10:31:00,
2013-01-15 04:36:00,17.1,5.2,28.79,North,8,0.0,0.0,59,0.00,,---,0.00,VWS V14.00,2013-01-15 10:36:00,
2013-01-15 04:41:00,17.1,5.2,28.79,North,8,0.0,0.0,59,0.00,,---,0.00,VWS V14.00,2013-01-15 10:41:00,
2013-01-15 04:46:00,17.2,5.4,28.79,North,8,0.0,0.0,59,0.00,,---,0.00,VWS V14.00,2013-01-15 10:46:00,
2013-01-15 04:51:00,17.2,5.4,28.79,North,8,0.0,0.0,59,0.00,,---,0.00,VWS V14.00,2013-01-15 10:51:00,
2013-01-15 04:56:00,17.4,5.9,28.79,North,8,0.0,0.0,60,0.00,,---,0.00,VWS V14.00,2013-01-15 10:56:00,
2013-01-15 05:01:00,17.2,5.8,28.79,North,8,0.0,0.0,60,0.00,,---,0.00,VWS V14.00,2013-01-15 11:01:00,
2013-01-15 05:06:00,17.2,5.8,28.82,North,8,0.0,0.0,60,0.00,,---,0.00,VWS V14.00,2013-01-15 11:06:00,
2013-01-15 05:11:00,17.2,5.8,28.82,North,8,0.0,0.0,60,0.00,,---,0.00,VWS V14.00,2013-01-15 11:11:00,
2013-01-15 05:16:00,17.1,5.6,28.82,North,8,0.0,0.0,60,0.00,,---,0.00,VWS V14.00,2013-01-15 11:16:00,
2013-01-15 05:22:00,17.2,5.8,28.79,North,8,0.0,0.0,60,0.00,,---,0.00,VWS V14.00,2013-01-15 11:22:00,
2013-01-15 05:27:00,17.2,5.8,28.79,North,8,0.0,0.0,60,0.00,,---,0.00,VWS V14.00,2013-01-15 11:27:00,
2013-01-15 05:32:00,17.1,5.6,28.79,North,8,0.0,0.0,60,0.00,,---,0.00,VWS V14.00,2013-01-15 11:32:00,
2013-01-15 05:37:00,17.1,5.6,28.82,North,8,0.0,0.0,60,0.00,,---,0.00,VWS V14.00,2013-01-15 11:37:00,
2013-01-15 05:42:00,17.1,5.9,28.82,North,8,0.0,0.0,61,0.00,,---,0.00,VWS V14.00,2013-01-15 11:42:00,
2013-01-15 05:47:00,16.9,5.8,28.82,North,8,0.0,0.0,61,0.00,,---,0.00,VWS V14.00,2013-01-15 11:47:00,
2013-01-15 05:52:00,16.9,5.8,28.82,North,8,0.0,0.0,61,0.00,,---,0.00,VWS V14.00,2013-01-15 11:52:00,
2013-01-15 05:57:00,16.7,5.6,28.82,North,8,0.0,0.0,61,0.00,,---,0.00,VWS V14.00,2013-01-15 11:57:00,
2013-01-15 06:02:00,16.7,5.6,28.82,North,8,0.0,0.0,61,0.00,,---,0.00,VWS V14.00,2013-01-15 12:02:00,
2013-01-15 06:07:00,16.5,5.4,28.82,North,8,0.0,0.0,61,0.00,,---,0.00,VWS V14.00,2013-01-15 12:07:00,
2013-01-15 06:12:00,16.2,5.1,28.82,North,8,0.0,0.0,61,0.00,,---,0.00,VWS V14.00,2013-01-15 12:12:00,
2013-01-15 06:17:00,16.0,4.9,28.82,North,8,0.0,0.0,61,0.00,,---,0.00,VWS V14.00,2013-01-15 12:17:00,
2013-01-15 06:23:00,15.8,5.1,28.85,North,8,0.0,0.0,62,0.00,,---,0.00,VWS V14.00,2013-01-15 12:23:00,
2013-01-15 06:28:00,15.6,4.9,28.85,North,8,0.0,0.0,62,0.00,,---,0.00,VWS V14.00,2013-01-15 12:28:00,
2013-01-15 06:33:00,15.4,4.8,28.85,North,8,0.0,0.0,62,0.00,,---,0.00,VWS V14.00,2013-01-15 12:33:00,
2013-01-15 06:38:00,15.3,4.6,28.82,North,8,0.0,0.0,62,0.00,,---,0.00,VWS V14.00,2013-01-15 12:38:00,
2013-01-15 06:43:00,15.1,4.4,28.82,North,8,0.0,0.0,62,0.00,,---,0.00,VWS V14.00,2013-01-15 12:43:00,
2013-01-15 06:48:00,15.1,4.4,28.82,North,8,0.0,0.0,62,0.00,,---,0.00,VWS V14.00,2013-01-15 12:48:00,
2013-01-15 06:53:00,14.9,4.2,28.85,North,8,0.0,0.0,62,0.00,,---,0.00,VWS V14.00,2013-01-15 12:53:00,
2013-01-15 06:58:00,14.7,4.1,28.85,North,8,0.0,0.0,62,0.00,,---,0.00,VWS V14.00,2013-01-15 12:58:00,
2013-01-15 07:03:00,14.5,4.2,28.85,North,8,0.0,0.0,63,0.00,,---,0.00,VWS V14.00,2013-01-15 13:03:00,
2013-01-15 07:08:00,14.5,4.2,28.82,North,8,0.0,0.0,63,0.00,,---,0.00,VWS V14.00,2013-01-15 13:08:00,
2013-01-15 07:13:00,14.4,4.1,28.82,North,8,0.0,0.0,63,0.00,,---,0.00,VWS V14.00,2013-01-15 13:13:00,
2013-01-15 07:18:00,14.4,4.1,28.82,North,8,0.0,0.0,63,0.00,,---,0.00,VWS V14.00,2013-01-15 13:18:00,
2013-01-15 07:24:00,14.4,4.1,28.82,North,8,0.0,0.0,63,0.00,,---,0.00,VWS V14.00,2013-01-15 13:24:00,
2013-01-15 07:29:00,14.4,4.1,28.82,North,8,0.0,0.0,63,0.00,,---,0.00,VWS V14.00,2013-01-15 13:29:00,
2013-01-15 07:34:00,14.2,4.2,28.82,North,8,0.0,0.0,64,0.00,,---,0.00,VWS V14.00,2013-01-15 13:34:00,
2013-01-15 07:39:00,14.2,4.2,28.82,North,8,0.0,0.0,64,0.00,,---,0.00,VWS V14.00,2013-01-15 13:39:00,
2013-01-15 07:44:00,14.2,4.2,28.82,North,8,0.0,0.0,64,0.00,,---,0.00,VWS V14.00,2013-01-15 13:44:00,
2013-01-15 07:49:00,14.2,4.2,28.82,North,8,0.0,0.0,64,0.00,,---,0.00,VWS V14.00,2013-01-15 13:49:00,
2013-01-15 07:54:00,14.2,4.2,28.79,North,8,0.0,0.0,64,0.00,,---,0.00,VWS V14.00,2013-01-15 13:54:00,
2013-01-15 07:59:00,14.4,4.8,28.79,North,8,0.0,0.0,65,0.00,,---,0.00,VWS V14.00,2013-01-15 13:59:00,
2013-01-15 08:04:00,14.4,4.8,28.79,North,8,0.0,0.0,65,0.00,,---,0.00,VWS V14.00,2013-01-15 14:04:00,
2013-01-15 08:09:00,14.4,4.8,28.82,North,8,0.0,0.0,65,0.00,,---,0.00,VWS V14.00,2013-01-15 14:09:00,
2013-01-15 08:15:00,14.4,4.8,28.82,North,8,0.0,0.0,65,0.00,,---,0.00,VWS V14.00,2013-01-15 14:15:00,
2013-01-15 08:20:00,14.4,4.8,28.82,North,8,0.0,0.0,65,0.00,,---,0.00,VWS V14.00,2013-01-15 14:20:00,
2013-01-15 08:25:00,14.4,5.1,28.82,North,8,0.0,0.0,66,0.00,,---,0.00,VWS V14.00,2013-01-15 14:25:00,
2013-01-15 08:30:00,14.5,5.3,28.82,North,8,0.0,0.0,66,0.00,,---,0.00,VWS V14.00,2013-01-15 14:30:00,
2013-01-15 08:35:00,15.1,6.1,28.82,North,8,0.0,0.0,67,0.00,,---,0.00,VWS V14.00,2013-01-15 14:35:00,
2013-01-15 08:40:00,15.3,6.3,28.82,North,8,0.0,0.0,67,0.00,,---,0.00,VWS V14.00,2013-01-15 14:40:00,
2013-01-15 08:45:00,15.8,6.8,28.82,North,8,0.0,0.0,67,0.00,,---,0.00,VWS V14.00,2013-01-15 14:45:00,
2013-01-15 08:50:00,16.3,7.6,28.82,North,8,0.0,0.0,68,0.00,,---,0.00,VWS V14.00,2013-01-15 14:50:00,
2013-01-15 08:55:00,17.1,8.3,28.85,North,8,0.0,0.0,68,0.00,,---,0.00,VWS V14.00,2013-01-15 14:55:00,
2013-01-15 09:00:00,17.8,9.4,28.85,North,8,0.0,0.0,69,0.00,,---,0.00,VWS V14.00,2013-01-15 15:00:00,
2013-01-15 09:05:00,18.3,9.9,28.82,North,8,0.0,0.0,69,0.00,,---,0.00,VWS V14.00,2013-01-15 15:05:00,
2013-01-15 09:11:00,18.9,10.4,28.82,North,8,0.0,0.0,69,0.00,,---,0.00,VWS V14.00,2013-01-15 15:11:00,
2013-01-15 09:16:00,19.6,11.1,28.82,North,8,0.0,0.0,69,0.00,,---,0.00,VWS V14.00,2013-01-15 15:16:00,
2013-01-15 09:21:00,20.3,12.1,28.88,North,8,0.0,0.0,70,0.00,,---,0.00,VWS V14.00,2013-01-15 15:21:00,
2013-01-15 09:26:00,20.8,12.6,28.88,North,8,0.0,0.0,70,0.00,,---,0.00,VWS V14.00,2013-01-15 15:26:00,
2013-01-15 09:31:00,21.7,13.5,28.88,North,8,0.0,0.0,70,0.00,,---,0.00,VWS V14.00,2013-01-15 15:31:00,
2013-01-15 09:36:00,22.3,14.0,28.85,North,8,0.0,0.0,70,0.00,,---,0.00,VWS V14.00,2013-01-15 15:36:00,
2013-01-15 09:41:00,22.8,14.5,28.85,North,8,0.0,0.0,70,0.00,,---,0.00,VWS V14.00,2013-01-15 15:41:00,
2013-01-15 09:46:00,23.5,14.6,28.85,North,8,0.0,0.0,68,0.00,,---,0.00,VWS V14.00,2013-01-15 15:46:00,
2013-01-15 09:51:00,23.9,14.6,28.85,North,8,2.2,2.7,67,0.00,,---,0.00,VWS V14.00,2013-01-15 15:51:00,
2013-01-15 09:57:00,24.4,14.0,28.85,North,8,2.7,2.7,64,0.00,,---,0.00,VWS V14.00,2013-01-15 15:57:00,
2013-01-15 10:02:00,24.8,13.3,28.85,North,8,0.0,0.0,61,0.00,,---,0.00,VWS V14.00,2013-01-15 16:02:00,
2013-01-15 10:07:00,25.2,12.9,28.91,North,8,0.0,0.0,59,0.00,,---,0.00,VWS V14.00,2013-01-15 16:07:00,
2013-01-15 10:12:00,25.7,13.0,28.91,North,8,0.0,2.7,58,0.00,,---,0.00,VWS V14.00,2013-01-15 16:12:00,
2013-01-15 10:17:00,26.4,13.7,28.91,North,8,0.0,0.0,58,0.00,,---,0.00,VWS V14.00,2013-01-15 16:17:00,
2013-01-15 10:22:00,27.1,13.9,28.85,SSW,206,2.7,4.0,57,0.00,,---,0.00,VWS V14.00,2013-01-15 16:22:00,
2013-01-15 10:27:00,27.9,14.2,28.85,SSW,204,2.7,3.6,56,0.00,,---,0.00,VWS V14.00,2013-01-15 16:27:00,
2013-01-15 10:32:00,28.6,14.5,28.85,SSW,199,2.7,2.7,55,0.00,,---,0.00,VWS V14.00,2013-01-15 16:32:00,
2013-01-15 10:37:00,29.1,15.0,28.88,SSW,199,0.0,0.0,55,0.00,,---,0.00,VWS V14.00,2013-01-15 16:37:00,
2013-01-15 10:42:00,29.8,15.2,28.88,SW,229,3.1,3.6,54,0.00,,---,0.00,VWS V14.00,2013-01-15 16:42:00,
2013-01-15 10:48:00,30.6,15.5,28.88,SW,229,0.0,0.0,53,0.00,,---,0.00,VWS V14.00,2013-01-15 16:48:00,
2013-01-15 10:53:00,30.7,14.8,28.91,SW,231,2.7,2.7,51,0.00,,---,0.00,VWS V14.00,2013-01-15 16:53:00,
2013-01-15 10:58:00,30.7,13.4,28.91,WSW,243,0.0,0.0,48,0.00,,---,0.00,VWS V14.00,2013-01-15 16:58:00,
2013-01-15 11:03:00,30.7,12.9,28.91,West,270,4.9,4.9,47,0.00,,---,0.00,VWS V14.00,2013-01-15 17:03:00,
2013-01-15 11:08:00,31.1,13.2,28.85,West,259,0.0,0.0,47,0.00,,---,0.00,VWS V14.00,2013-01-15 17:08:00,
2013-01-15 11:13:00,31.1,12.8,28.85,NW,310,0.0,0.0,46,0.00,,---,0.00,VWS V14.00,2013-01-15 17:13:00,
2013-01-15 11:18:00,31.5,13.6,28.85,SW,220,2.7,2.7,47,0.00,,---,0.00,VWS V14.00,2013-01-15 17:18:00,
2013-01-15 11:23:00,32.2,13.7,28.88,SSW,211,0.0,0.0,46,0.00,,---,0.00,VWS V14.00,2013-01-15 17:23:00,
2013-01-15 11:28:00,32.5,14.1,28.88,WSW,246,3.6,4.9,46,0.00,,---,0.00,VWS V14.00,2013-01-15 17:28:00,
2013-01-15 11:33:00,33.1,14.6,28.88,WSW,246,0.0,0.0,46,0.00,,---,0.00,VWS V14.00,2013-01-15 17:33:00,
2013-01-15 11:39:00,33.3,13.7,28.91,SW,224,0.0,0.0,44,0.00,,---,0.00,VWS V14.00,2013-01-15 17:39:00,
2013-01-15 11:44:00,33.6,14.1,28.91,SSW,194,0.0,2.7,44,0.00,,---,0.00,VWS V14.00,2013-01-15 17:44:00,
2013-01-15 11:49:00,34.0,14.4,28.91,SSW,196,0.0,0.0,44,0.00,,---,0.00,VWS V14.00,2013-01-15 17:49:00,
2013-01-15 11:54:00,34.3,14.2,28.82,SE,138,3.1,4.0,43,0.00,,---,0.00,VWS V14.00,2013-01-15 17:54:00,
2013-01-15 11:59:00,34.9,14.7,28.82,NNE,33,2.7,2.7,43,0.00,,---,0.00,VWS V14.00,2013-01-15 17:59:00,
2013-01-15 12:04:00,35.2,15.0,28.82,SSE,155,2.7,3.1,43,0.00,,---,0.00,VWS V14.00,2013-01-15 18:04:00,
2013-01-15 12:09:00,35.6,14.8,28.85,SE,142,2.7,3.1,42,0.00,,---,0.00,VWS V14.00,2013-01-15 18:09:00,
2013-01-15 12:14:00,36.0,14.6,28.85,SW,214,2.2,2.7,41,0.00,,---,0.00,VWS V14.00,2013-01-15 18:14:00,
2013-01-15 12:19:00,35.8,13.8,28.85,WSW,237,3.6,3.6,40,0.00,,---,0.00,VWS V14.00,2013-01-15 18:19:00,
2013-01-15 12:24:00,35.4,13.5,28.88,WSW,238,3.6,3.6,40,0.00,,---,0.00,VWS V14.00,2013-01-15 18:24:00,
2013-01-15 12:29:00,35.4,14.1,28.88,West,271,3.6,5.4,41,0.00,,---,0.00,VWS V14.00,2013-01-15 18:29:00,
2013-01-15 12:35:00,35.4,13.5,28.88,South,180,2.7,2.7,40,0.00,,---,0.00,VWS V14.00,2013-01-15 18:35:00,
2013-01-15 12:40:00,35.6,13.7,28.91,SSW,197,0.0,0.0,40,0.00,,---,0.00,VWS V14.00,2013-01-15 18:40:00,
2013-01-15 12:45:00,35.8,13.8,28.91,WNW,299,2.7,2.7,40,0.00,,---,0.00,VWS V14.00,2013-01-15 18:45:00,
2013-01-15 12:50:00,36.0,14.0,28.91,WSW,244,0.0,0.0,40,0.00,,---,0.00,VWS V14.00,2013-01-15 18:50:00,
2013-01-15 12:55:00,36.3,14.3,28.91,WSW,237,0.0,3.6,40,0.00,,---,0.00,VWS V14.00,2013-01-15 18:55:00,
2013-01-15 13:00:00,36.5,14.5,28.91,WSW,240,0.0,3.6,40,0.00,,---,0.00,VWS V14.00,2013-01-15 19:00:00,
2013-01-15 13:05:00,36.3,14.3,28.91,SW,231,3.6,6.3,40,0.00,,---,0.00,VWS V14.00,2013-01-15 19:05:00,
2013-01-15 13:10:00,36.1,14.2,28.79,WSW,239,2.7,3.1,40,0.00,,---,0.00,VWS V14.00,2013-01-15 19:10:00,
2013-01-15 13:15:00,36.1,14.2,28.79,South,190,3.1,3.6,40,0.00,,---,0.00,VWS V14.00,2013-01-15 19:15:00,
2013-01-15 13:20:00,36.5,14.5,28.79,South,180,2.7,2.7,40,0.00,,---,0.00,VWS V14.00,2013-01-15 19:20:00,
2013-01-15 13:25:00,37.0,15.0,28.79,South,189,5.4,5.4,40,0.00,,---,0.00,VWS V14.00,2013-01-15 19:25:00,
2013-01-15 13:30:00,37.6,14.9,28.79,ENE,57,3.6,4.0,39,0.00,,---,0.00,VWS V14.00,2013-01-15 19:30:00,
2013-01-15 13:35:00,38.1,15.4,28.79,SSE,154,0.0,0.0,39,0.00,,---,0.00,VWS V14.00,2013-01-15 19:35:00,
2013-01-15 13:40:00,38.7,15.9,28.82,SSW,204,2.2,2.7,39,0.00,,---,0.00,VWS V14.00,2013-01-15 19:40:00,
2013-01-15 13:45:00,38.5,15.7,28.82,West,260,0.0,4.0,39,0.00,,---,0.00,VWS V14.00,2013-01-15 19:45:00,
2013-01-15 13:50:00,38.1,14.8,28.82,WSW,251,0.0,0.0,38,0.00,,---,0.00,VWS V14.00,2013-01-15 19:50:00,
2013-01-15 13:55:00,37.8,15.0,28.82,WSW,251,0.0,0.0,39,0.00,,---,0.00,VWS V14.00,2013-01-15 19:55:00,
2013-01-15 14:01:00,38.1,15.4,28.82,West,263,2.7,2.7,39,0.00,,---,0.00,VWS V14.00,2013-01-15 20:01:00,
2013-01-15 14:06:00,38.1,15.4,28.85,West,263,3.6,3.6,39,0.00,,---,0.00,VWS V14.00,2013-01-15 20:06:00,
2013-01-15 14:11:00,38.1,15.4,28.85,WSW,254,4.0,4.0,39,0.00,,---,0.00,VWS V14.00,2013-01-15 20:11:00,
2013-01-15 14:16:00,38.1,15.4,28.85,West,263,0.0,0.0,39,0.00,,---,0.00,VWS V14.00,2013-01-15 20:16:00,
2013-01-15 14:21:00,38.3,15.5,28.85,ESE,115,3.1,3.1,39,0.00,,---,0.00,VWS V14.00,2013-01-15 20:21:00,
2013-01-15 14:26:00,38.8,16.0,28.85,SE,138,3.1,4.0,39,0.00,,---,0.00,VWS V14.00,2013-01-15 20:26:00,
2013-01-15 14:31:00,38.8,15.4,28.85,West,265,3.6,5.4,38,0.00,,---,0.00,VWS V14.00,2013-01-15 20:31:00,
2013-01-15 14:36:00,37.9,14.6,28.85,South,171,2.7,5.4,38,0.00,,---,0.00,VWS V14.00,2013-01-15 20:36:00,
2013-01-15 14:42:00,37.0,14.4,28.85,SSE,167,4.0,4.9,39,0.00,,---,0.00,VWS V14.00,2013-01-15 20:42:00,
2013-01-15 14:47:00,36.9,14.2,28.85,SSE,166,4.0,4.0,39,0.00,,---,0.00,VWS V14.00,2013-01-15 20:47:00,
2013-01-15 14:52:00,37.0,14.4,28.88,SW,236,0.0,3.1,39,0.00,,---,0.00,VWS V14.00,2013-01-15 20:52:00,
2013-01-15 14:57:00,37.2,14.6,28.88,SW,222,3.6,4.9,39,0.00,,---,0.00,VWS V14.00,2013-01-15 20:57:00,
2013-01-15 15:02:00,37.2,14.6,28.88,South,170,3.1,4.9,39,0.00,,---,0.00,VWS V14.00,2013-01-15 21:02:00,
2013-01-15 15:07:00,37.6,14.9,28.91,South,186,4.0,5.4,39,0.00,,---,0.00,VWS V14.00,2013-01-15 21:07:00,
2013-01-15 15:12:00,37.8,15.0,28.91,WNW,286,3.6,3.6,39,0.00,,---,0.00,VWS V14.00,2013-01-15 21:12:00,
2013-01-15 15:17:00,37.4,14.7,28.91,WSW,240,3.6,3.6,39,0.00,,---,0.00,VWS V14.00,2013-01-15 21:17:00,
2013-01-15 15:22:00,37.6,14.9,28.94,SW,231,2.7,4.0,39,0.00,,---,0.00,VWS V14.00,2013-01-15 21:22:00,
2013-01-15 15:27:00,37.2,14.6,28.94,WSW,252,3.6,6.3,39,0.00,,---,0.00,VWS V14.00,2013-01-15 21:27:00,
2013-01-15 15:32:00,36.5,13.9,28.94,WSW,253,2.7,3.6,39,0.00,,---,0.00,VWS V14.00,2013-01-15 21:32:00,
2013-01-15 15:37:00,36.3,14.3,28.94,SSW,206,2.7,2.7,40,0.00,,---,0.00,VWS V14.00,2013-01-15 21:37:00,
2013-01-15 15:43:00,36.7,14.6,28.94,SSW,211,2.7,2.7,40,0.00,,---,0.00,VWS V14.00,2013-01-15 21:43:00,
2013-01-15 15:48:00,36.7,14.6,28.94,SSW,211,2.2,3.1,40,0.00,,---,0.00,VWS V14.00,2013-01-15 21:48:00,
2013-01-15 15:53:00,36.9,14.8,28.82,SSW,211,0.0,0.0,40,0.00,,---,0.00,VWS V14.00,2013-01-15 21:53:00,
2013-01-15 15:58:00,36.9,14.8,28.82,NW,310,3.1,3.6,40,0.00,,---,0.00,VWS V14.00,2013-01-15 21:58:00,
2013-01-15 16:03:00,36.7,14.6,28.82,WSW,252,4.0,4.0,40,0.00,,---,0.00,VWS V14.00,2013-01-15 22:03:00,
2013-01-15 16:08:00,36.3,14.3,28.82,NNW,328,2.2,2.2,40,0.00,,---,0.00,VWS V14.00,2013-01-15 22:08:00,
2013-01-15 16:13:00,36.3,14.3,28.82,NNW,328,0.0,0.0,40,0.00,,---,0.00,VWS V14.00,2013-01-15 22:13:00,
2013-01-15 16:18:00,36.0,14.0,28.82,NNW,328,0.0,0.0,40,0.00,,---,0.00,VWS V14.00,2013-01-15 22:18:00,
2013-01-15 16:24:00,35.4,13.5,28.88,West,279,3.1,3.6,40,0.00,,---,0.00,VWS V14.00,2013-01-15 22:24:00,
2013-01-15 16:29:00,35.1,13.2,28.88,WNW,291,2.2,2.7,40,0.00,,---,0.00,VWS V14.00,2013-01-15 22:29:00,
2013-01-15 16:34:00,34.9,13.0,28.88,WNW,291,0.0,0.0,40,0.00,,---,0.00,VWS V14.00,2013-01-15 22:34:00,
2013-01-15 16:39:00,34.5,12.7,28.91,WNW,291,0.0,0.0,40,0.00,,---,0.00,VWS V14.00,2013-01-15 22:39:00,
2013-01-15 16:44:00,34.3,13.1,28.91,WNW,291,0.0,0.0,41,0.00,,---,0.00,VWS V14.00,2013-01-15 22:44:00,
2013-01-15 16:49:00,34.2,12.9,28.91,WNW,291,0.0,0.0,41,0.00,,---,0.00,VWS V14.00,2013-01-15 22:49:00,
2013-01-15 16:54:00,34.0,12.8,28.91,WNW,291,0.0,0.0,41,0.00,,---,0.00,VWS V14.00,2013-01-15 22:54:00,
2013-01-15 16:59:00,33.8,12.6,28.91,WNW,291,0.0,0.0,41,0.00,,---,0.00,VWS V14.00,2013-01-15 22:59:00,
2013-01-15 17:04:00,33.6,12.4,28.91,WNW,291,0.0,0.0,41,0.00,,---,0.00,VWS V14.00,2013-01-15 23:04:00,
2013-01-15 17:10:00,33.3,12.1,28.97,WNW,291,0.0,0.0,41,0.00,,---,0.00,VWS V14.00,2013-01-15 23:10:00,
2013-01-15 17:15:00,33.1,12.0,28.97,WNW,291,0.0,0.0,41,0.00,,---,0.00,VWS V14.00,2013-01-15 23:15:00,
2013-01-15 17:20:00,32.7,12.2,28.97,WNW,291,0.0,0.0,42,0.00,,---,0.00,VWS V14.00,2013-01-15 23:20:00,
2013-01-15 17:25:00,32.4,11.9,28.82,WNW,291,0.0,0.0,42,0.00,,---,0.00,VWS V14.00,2013-01-15 23:25:00,
2013-01-15 17:30:00,32.0,11.5,28.82,WNW,291,0.0,0.0,42,0.00,,---,0.00,VWS V14.00,2013-01-15 23:30:00,
2013-01-15 17:35:00,31.3,10.9,28.82,WNW,291,0.0,0.0,42,0.00,,---,0.00,VWS V14.00,2013-01-15 23:35:00,
2013-01-15 17:40:00,30.9,10.5,28.85,WNW,291,0.0,0.0,42,0.00,,---,0.00,VWS V14.00,2013-01-15 23:40:00,
2013-01-15 17:45:00,30.2,9.9,28.85,WNW,291,0.0,0.0,42,0.00,,---,0.00,VWS V14.00,2013-01-15 23:45:00,
2013-01-15 17:50:00,29.8,10.1,28.85,WNW,291,0.0,0.0,43,0.00,,---,0.00,VWS V14.00,2013-01-15 23:50:00,
2013-01-15 17:55:00,29.5,9.8,28.91,WNW,291,0.0,0.0,43,0.00,,---,0.00,VWS V14.00,2013-01-15 23:55:00,
2013-01-15 18:00:00,28.9,9.3,28.91,WNW,291,0.0,0.0,43,0.00,,---,0.00,VWS V14.00,2013-01-16 00:00:00,
2013-01-15 18:05:00,28.6,8.9,28.91,WNW,291,0.0,0.0,43,0.00,,---,0.00,VWS V14.00,2013-01-16 00:05:00,
2013-01-15 18:10:00,28.4,9.3,28.94,WNW,291,0.0,0.0,44,0.00,,---,0.00,VWS V14.00,2013-01-16 00:10:00,
2013-01-15 18:16:00,28.0,8.9,28.94,WNW,291,0.0,0.0,44,0.00,,---,0.00,VWS V14.00,2013-01-16 00:16:00,
2013-01-15 18:21:00,27.7,9.1,28.94,WNW,291,0.0,0.0,45,0.00,,---,0.00,VWS V14.00,2013-01-16 00:21:00,
2013-01-15 18:26:00,27.1,8.6,28.94,WNW,291,0.0,0.0,45,0.00,,---,0.00,VWS V14.00,2013-01-16 00:26:00,
2013-01-15 18:31:00,26.8,8.3,28.94,WNW,291,0.0,0.0,45,0.00,,---,0.00,VWS V14.00,2013-01-16 00:31:00,
2013-01-15 18:36:00,26.4,8.5,28.82,WNW,291,0.0,0.0,46,0.00,,---,0.00,VWS V14.00,2013-01-16 00:36:00,
2013-01-15 18:41:00,26.1,8.1,28.82,WNW,291,0.0,0.0,46,0.00,,---,0.00,VWS V14.00,2013-01-16 00:41:00,
2013-01-15 18:46:00,25.7,8.3,28.82,WNW,291,0.0,0.0,47,0.00,,---,0.00,VWS V14.00,2013-01-16 00:46:00,
2013-01-15 18:51:00,25.5,8.1,28.88,WNW,291,0.0,0.0,47,0.00,,---,0.00,VWS V14.00,2013-01-16 00:51:00,
2013-01-15 18:56:00,25.3,8.4,28.88,WNW,291,0.0,0.0,48,0.00,,---,0.00,VWS V14.00,2013-01-16 00:56:00,
2013-01-15 19:01:00,25.2,8.2,28.88,WNW,291,0.0,0.0,48,0.00,,---,0.00,VWS V14.00,2013-01-16 01:01:00,
2013-01-15 19:06:00,25.0,8.5,28.91,WNW,291,0.0,0.0,49,0.00,,---,0.00,VWS V14.00,2013-01-16 01:06:00,
2013-01-15 19:11:00,24.8,8.4,28.91,WNW,291,0.0,0.0,49,0.00,,---,0.00,VWS V14.00,2013-01-16 01:11:00,
2013-01-15 19:17:00,24.4,8.5,28.91,WNW,291,0.0,0.0,50,0.00,,---,0.00,VWS V14.00,2013-01-16 01:17:00,
2013-01-15 19:22:00,24.4,8.5,28.94,WNW,291,0.0,0.0,50,0.00,,---,0.00,VWS V14.00,2013-01-16 01:22:00,
2013-01-15 19:27:00,24.4,8.9,28.94,WNW,291,0.0,0.0,51,0.00,,---,0.00,VWS V14.00,2013-01-16 01:27:00,
2013-01-15 19:32:00,24.3,8.8,28.94,WNW,291,2.7,2.7,51,0.00,,---,0.00,VWS V14.00,2013-01-16 01:32:00,
2013-01-15 19:37:00,24.3,9.2,28.82,WNW,291,2.7,3.1,52,0.00,,---,0.00,VWS V14.00,2013-01-16 01:37:00,
2013-01-15 19:42:00,24.4,9.4,28.82,West,265,3.1,3.1,52,0.00,,---,0.00,VWS V14.00,2013-01-16 01:42:00,
2013-01-15 19:47:00,24.4,9.4,28.82,WSW,254,0.0,2.2,52,0.00,,---,0.00,VWS V14.00,2013-01-16 01:47:00,
2013-01-15 19:52:00,24.4,9.8,28.88,WSW,237,0.0,0.0,53,0.00,,---,0.00,VWS V14.00,2013-01-16 01:52:00,
2013-01-15 19:57:00,24.3,9.6,28.88,SW,233,2.2,2.2,53,0.00,,---,0.00,VWS V14.00,2013-01-16 01:57:00,
2013-01-15 20:02:00,24.1,9.4,28.88,SW,233,2.2,2.2,53,0.00,,---,0.00,VWS V14.00,2013-01-16 02:02:00,
2013-01-15 20:07:00,23.9,9.3,28.91,SW,233,0.0,0.0,53,0.00,,---,0.00,VWS V14.00,2013-01-16 02:07:00,
2013-01-15 20:12:00,23.7,9.1,28.91,SW,233,0.0,0.0,53,0.00,,---,0.00,VWS V14.00,2013-01-16 02:12:00,
2013-01-15 20:18:00,23.5,8.9,28.91,SW,233,0.0,0.0,53,0.00,,---,0.00,VWS V14.00,2013-01-16 02:18:00,
2013-01-15 20:23:00,23.5,8.9,28.94,SW,233,0.0,0.0,53,0.00,,---,0.00,VWS V14.00,2013-01-16 02:23:00,
2013-01-15 20:28:00,23.4,8.8,28.94,SW,233,0.0,0.0,53,0.00,,---,0.00,VWS V14.00,2013-01-16 02:28:00,
2013-01-15 20:33:00,23.2,9.0,28.94,SW,233,0.0,0.0,54,0.00,,---,0.00,VWS V14.00,2013-01-16 02:33:00,
2013-01-15 20:38:00,23.0,8.9,28.85,SW,232,3.1,3.1,54,0.00,,---,0.00,VWS V14.00,2013-01-16 02:38:00,
2013-01-15 20:43:00,22.8,8.7,28.85,SW,232,2.7,2.7,54,0.00,,---,0.00,VWS V14.00,2013-01-16 02:43:00,
2013-01-15 20:48:00,22.8,8.7,28.85,SW,232,0.0,0.0,54,0.00,,---,0.00,VWS V14.00,2013-01-16 02:48:00,
2013-01-15 20:53:00,22.8,9.1,28.91,SW,232,0.0,0.0,55,0.00,,---,0.00,VWS V14.00,2013-01-16 02:53:00,
2013-01-15 20:58:00,22.6,8.9,28.91,SW,232,0.0,0.0,55,0.00,,---,0.00,VWS V14.00,2013-01-16 02:58:00,
2013-01-15 21:03:00,22.6,8.9,28.91,SW,232,0.0,0.0,55,0.00,,---,0.00,VWS V14.00,2013-01-16 03:03:00,
2013-01-15 21:09:00,22.5,8.8,28.97,SW,232,0.0,0.0,55,0.00,,---,0.00,VWS V14.00,2013-01-16 03:09:00,
2013-01-15 21:14:00,22.5,8.8,28.97,SW,232,0.0,0.0,55,0.00,,---,0.00,VWS V14.00,2013-01-16 03:14:00,
2013-01-15 21:19:00,22.6,9.3,28.97,SW,232,0.0,0.0,56,0.00,,---,0.00,VWS V14.00,2013-01-16 03:19:00,
2013-01-15 21:24:00,22.6,9.7,28.91,SW,232,0.0,0.0,57,0.00,,---,0.00,VWS V14.00,2013-01-16 03:24:00,
2013-01-15 21:29:00,22.6,9.7,28.91,SW,232,0.0,0.0,57,0.00,,---,0.00,VWS V14.00,2013-01-16 03:29:00,
2013-01-15 21:34:00,22.5,9.5,28.91,SW,232,0.0,0.0,57,0.00,,---,0.00,VWS V14.00,2013-01-16 03:34:00,
2013-01-15 21:39:00,22.3,9.4,28.91,SW,232,0.0,0.0,57,0.00,,---,0.00,VWS V14.00,2013-01-16 03:39:00,
2013-01-15 21:44:00,22.1,9.2,28.91,SW,232,0.0,0.0,57,0.00,,---,0.00,VWS V14.00,2013-01-16 03:44:00,
2013-01-15 21:49:00,22.1,9.2,28.91,SW,232,0.0,0.0,57,0.00,,---,0.00,VWS V14.00,2013-01-16 03:49:00,
2013-01-15 21:54:00,21.9,9.0,29.00,SW,232,0.0,0.0,57,0.00,,---,0.00,VWS V14.00,2013-01-16 03:54:00,
2013-01-15 21:59:00,21.9,9.0,29.00,SW,232,0.0,0.0,57,0.00,,---,0.00,VWS V14.00,2013-01-16 03:59:00,
2013-01-15 22:04:00,21.7,8.9,29.00,SW,232,0.0,0.0,57,0.00,,---,0.00,VWS V14.00,2013-01-16 04:04:00,
2013-01-15 22:09:00,21.6,8.7,29.03,SW,232,0.0,0.0,57,0.00,,---,0.00,VWS V14.00,2013-01-16 04:09:00,
2013-01-15 22:14:00,21.6,8.7,29.03,SW,232,0.0,0.0,57,0.00,,---,0.00,VWS V14.00,2013-01-16 04:14:00,
2013-01-15 22:19:00,21.4,8.9,29.03,SW,232,0.0,0.0,58,0.00,,---,0.00,VWS V14.00,2013-01-16 04:19:00,
2013-01-15 22:24:00,21.4,8.9,28.94,SW,232,0.0,0.0,58,0.00,,---,0.00,VWS V14.00,2013-01-16 04:24:00,
2013-01-15 22:30:00,21.4,8.9,28.94,SW,232,0.0,0.0,58,0.00,,---,0.00,VWS V14.00,2013-01-16 04:30:00,
2013-01-15 22:35:00,21.4,8.9,28.94,SW,232,0.0,0.0,58,0.00,,---,0.00,VWS V14.00,2013-01-16 04:35:00,
2013-01-15 22:40:00,21.2,9.1,29.00,SW,232,0.0,0.0,59,0.00,,---,0.00,VWS V14.00,2013-01-16 04:40:00,
2013-01-15 22:45:00,21.4,9.3,29.00,SW,232,0.0,0.0,59,0.00,,---,0.00,VWS V14.00,2013-01-16 04:45:00,
2013-01-15 22:50:00,21.4,9.3,29.00,SW,232,2.2,2.7,59,0.00,,---,0.00,VWS V14.00,2013-01-16 04:50:00,
2013-01-15 22:55:00,21.4,9.3,29.12,SW,230,0.0,2.2,59,0.00,,---,0.00,VWS V14.00,2013-01-16 04:55:00,
2013-01-15 23:01:00,21.2,9.1,29.12,SW,230,0.0,0.0,59,0.00,,---,0.00,VWS V14.00,2013-01-16 05:01:00,
2013-01-15 23:02:00,21.2,9.1,29.12,SW,230,0.0,0.0,59,0.00,,---,0.00,VWS V14.00,2013-01-16 05:02:00,
2013-01-15 23:04:00,21.2,9.1,29.12,SW,230,0.0,0.0,59,0.00,,---,0.00,VWS V14.00,2013-01-16 05:04:00,
2013-01-15 23:09:00,21.0,8.9,28.94,SW,230,0.0,0.0,59,0.00,,---,0.00,VWS V14.00,2013-01-16 05:09:00,
2013-01-15 23:14:00,21.0,9.3,28.94,SW,230,0.0,0.0,60,0.00,,---,0.00,VWS V14.00,2013-01-16 05:14:00,
2013-01-15 23:19:00,21.0,9.3,28.94,SW,230,0.0,0.0,60,0.00,,---,0.00,VWS V14.00,2013-01-16 05:19:00,
2013-01-15 23:24:00,21.0,9.3,29.03,SW,230,0.0,0.0,60,0.00,,---,0.00,VWS V14.00,2013-01-16 05:24:00,
2013-01-15 23:29:00,21.0,9.3,29.03,SW,224,0.0,0.0,60,0.00,,---,0.00,VWS V14.00,2013-01-16 05:29:00,
2013-01-15 23:34:00,21.0,9.3,29.03,SW,224,0.0,0.0,60,0.00,,---,0.00,VWS V14.00,2013-01-16 05:34:00,
2013-01-15 23:39:00,21.0,9.7,29.12,SSW,207,3.6,4.0,61,0.00,,---,0.00,VWS V14.00,2013-01-16 05:39:00,
2013-01-15 23:44:00,21.0,9.7,29.12,SSE,149,0.0,2.7,61,0.00,,---,0.00,VWS V14.00,2013-01-16 05:44:00,
2013-01-15 23:49:00,21.2,9.9,29.12,SSE,149,2.2,2.2,61,0.00,,---,0.00,VWS V14.00,2013-01-16 05:49:00,
2013-01-15 23:54:00,21.4,10.0,28.97,SSE,159,3.6,4.0,61,0.00,,---,0.00,VWS V14.00,2013-01-16 05:54:00,